Weather reports worldwide

Advertisment
West Freugh, United Kingdom (3132): temperature & dewpoint: 15.09.2020 01:00:00 - 21.09.2020 01:00:00 (BST)West Freugh, United Kingdom (3132): temperature -20cm & temperature -100cm: 15.09.2020 01:00:00 - 21.09.2020 01:00:00 (BST)West Freugh, United Kingdom (3132): wind speed: 15.09.2020 01:00:00 - 21.09.2020 01:00:00 (BST)West Freugh, United Kingdom (3132): wind direction: 15.09.2020 01:00:00 - 21.09.2020 01:00:00 (BST)West Freugh, United Kingdom (3132): reduced air pressure: 15.09.2020 01:00:00 - 21.09.2020 01:00:00 (BST)West Freugh, United Kingdom (3132): visibility: 15.09.2020 01:00:00 - 21.09.2020 01:00:00 (BST)West Freugh, United Kingdom (3132): precipitation: 15.09.2020 01:00:00 - 21.09.2020 01:00:00 (BST)
Date & Time tt [°C] td [°C] tt -20cm [°C] tt -100cm [°C] ff [km/h] ff [kn] dd ppp [hPa] vv [km] rr [mm]
21.09.2020 01:00:00 6,3 6,2 - - 4 2 NNW 1019,9 5 0,0
21.09.2020 00:00:00 5,5 5,2 - - 2 1 W 1020,2 3,8 0,0
20.09.2020 23:00:00 5,3 4,8 - - 2 1 NNE 1020,4 10 0,0
20.09.2020 22:00:00 6,3 5,8 - - 9 5 NW 1021,1 12 0,0
20.09.2020 21:00:00 6,5 5,5 - - 2 1 NW 1021,1 16 0,0
20.09.2020 20:00:00 8,9 7,5 - - 2 1 WNW 1021,3 30 0,0
20.09.2020 19:00:00 12,1 9,5 - - 8 4 NNW 1021,3 50 0,0
20.09.2020 18:00:00 14,5 10,3 - - 9 5 NW 1021,7 50 0,0
20.09.2020 17:00:00 15,7 11,0 - - 11 6 NW 1022,0 50 0,0
20.09.2020 16:00:00 16,7 12,2 - - 9 5 S 1022,2 45 0,0
20.09.2020 15:00:00 17,3 12,0 - - 5 3 SSW 1022,5 45 0,0
20.09.2020 14:00:00 16,5 11,6 - - 9 5 S 1023,1 50 0,0
20.09.2020 13:00:00 16,5 11,0 - - 9 5 ESE 1023,1 45 0,0
20.09.2020 12:00:00 15,7 11,1 - - 8 4 SSE 1023,5 45 0,0
20.09.2020 11:00:00 14,3 10,9 - - 4 2 NE 1024,4 45 0,0
20.09.2020 10:00:00 13,6 12,0 - - 5 3 N 1024,6 35 0,0
20.09.2020 09:00:00 8,8 8,8 - - 8 4 NNE 1024,5 50 -
20.09.2020 08:00:00 4,4 4,1 - - 2 1 NNW 1023,9 22 0,0
20.09.2020 07:00:00 3,8 3,1 - - 8 4 W 1023,7 26 0,0
20.09.2020 06:00:00 5,7 5,2 - - 8 4 NNW 1023,8 50 0,0
20.09.2020 05:00:00 4,5 4,3 - - 4 2 N 1023,7 40 0,0
20.09.2020 04:00:00 4,3 4,2 - - 8 4 NW 1024,3 40 0,0
20.09.2020 03:00:00 3,1 2,6 - - 4 2 N 1024,4 25 0,0
20.09.2020 02:00:00 4,4 4,1 - - 4 2 SW 1024,6 30 0,0
20.09.2020 01:00:00 5,2 4,5 - - 8 4 NNE 1024,6 30 0,0
20.09.2020 00:00:00 5,6 4,7 - - 2 1 NNE 1024,8 45 0,0
19.09.2020 23:00:00 4,1 3,1 - - 4 2 SSE 1024,5 40 0,0
19.09.2020 22:00:00 6,0 4,7 - - 4 2 W 1024,2 40 0,0
19.09.2020 21:00:00 7,3 5,8 - - 2 1 NNW 1023,7 45 0,0
19.09.2020 20:00:00 9,4 6,8 - - 2 1 E 1023,3 45 0,0
19.09.2020 19:00:00 14,2 9,2 - - 5 3 WNW 1022,9 45 0,0
19.09.2020 18:00:00 16,3 10,1 - - 8 4 NW 1022,7 45 0,0
19.09.2020 17:00:00 17,0 9,7 - - 8 4 NNW 1023,0 30 0,0
19.09.2020 16:00:00 17,0 9,3 - - 8 4 NW 1023,4 45 0,0
19.09.2020 15:00:00 16,8 9,3 - - 11 6 NNW 1023,6 50 0,0
19.09.2020 14:00:00 17,2 10,0 - - 9 5 ESE 1024,1 21 0,0
19.09.2020 13:00:00 15,9 8,1 - - 11 6 E 1024,7 30 0,0
19.09.2020 12:00:00 14,9 8,3 - - 13 7 E 1024,9 40 0,0
19.09.2020 11:00:00 13,7 8,7 - - 13 7 ENE 1025,2 45 0,0
19.09.2020 10:00:00 11,7 8,0 15,0 14,5 13 7 ENE 1025,2 50 0,0
19.09.2020 09:00:00 9,5 9,2 - - 2 1 SW 1025,2 50 0,0
19.09.2020 08:00:00 4,5 4,1 - - 2 1 WSW 1025,0 35 0,0
19.09.2020 07:00:00 3,3 2,4 - - 4 2 W 1024,7 40 0,0
19.09.2020 06:00:00 5,1 3,9 - - 2 1 NE 1024,5 40 0,0
19.09.2020 05:00:00 5,6 4,8 - - 5 3 ENE 1024,7 45 0,0
19.09.2020 04:00:00 7,6 6,1 - - 9 5 NE 1025,2 45 0,0
19.09.2020 03:00:00 7,4 5,9 - - 11 6 E 1025,8 40 0,0
19.09.2020 02:00:00 8,4 6,7 - - 13 7 ENE 1026,1 45 0,0
19.09.2020 01:00:00 9,1 7,3 - - 15 8 E 1026,3 50 0,0
19.09.2020 00:00:00 9,4 7,4 - - 16 9 ENE 1026,2 50 0,0
18.09.2020 23:00:00 8,0 6,6 - - 4 2 SW 1026,1 50 0,0
18.09.2020 22:00:00 7,7 5,5 - - 5 3 S 1025,8 50 0,0
18.09.2020 21:00:00 8,7 7,2 - - 5 3 N 1025,9 40 0,0
18.09.2020 20:00:00 10,1 6,5 - - 4 2 W 1025,9 50 0,0
18.09.2020 19:00:00 13,7 8,7 - - 8 4 NE 1025,8 50 0,0
18.09.2020 18:00:00 16,0 8,5 - - 11 6 ENE 1026,0 45 0,0
18.09.2020 17:00:00 17,0 10,0 - - 4 2 S 1026,2 30 0,0
18.09.2020 16:00:00 16,3 9,1 - - 5 3 SE 1026,5 50 0,0
18.09.2020 15:00:00 15,4 10,7 - - 16 9 SSE 1027,1 45 0,0
18.09.2020 14:00:00 16,4 10,9 - - 13 7 SE 1027,3 30 0,0
18.09.2020 13:00:00 16,6 9,2 - - 11 6 E 1027,7 40 0,0
18.09.2020 12:00:00 15,0 9,9 - - 13 7 ENE 1028,1 30 0,0
18.09.2020 11:00:00 14,7 10,4 - - 9 5 E 1028,4 28 0,0
18.09.2020 10:00:00 13,6 10,8 15,4 14,5 11 6 ENE 1028,6 25 0,0
18.09.2020 09:00:00 10,9 10,9 - - 2 1 E 1028,5 26 0,0
18.09.2020 08:00:00 7,3 7,2 - - 4 2 NNW 1028,3 14 0,0
18.09.2020 07:00:00 7,2 7,1 - - 8 4 N 1028,0 24 0,0
18.09.2020 06:00:00 7,1 7,0 - - 5 3 N 1028,0 15 0,0
18.09.2020 05:00:00 6,8 6,7 - - 4 2 N 1028,2 13 0,0
18.09.2020 04:00:00 6,7 6,4 - - 0 0 N 1028,1 11 0,0
18.09.2020 03:00:00 7,5 7,3 - - 2 1 WNW 1028,1 9 0,0
18.09.2020 02:00:00 7,7 7,5 - - 2 1 NNW 1028,3 11 0,0
18.09.2020 01:00:00 7,7 7,4 - - 5 3 NNW 1028,6 8 0,0
18.09.2020 00:00:00 8,4 8,2 - - 5 3 NW 1028,8 9 0,0
17.09.2020 23:00:00 8,2 7,7 - - 2 1 W 1028,6 10 0,0
17.09.2020 22:00:00 8,5 7,6 - - 4 2 NE 1028,8 7 0,0
17.09.2020 21:00:00 10,3 9,5 - - 2 1 N 1028,8 12 0,0
17.09.2020 20:00:00 12,1 10,6 - - 4 2 NNE 1028,5 14 0,0
17.09.2020 19:00:00 14,3 11,9 - - 11 6 SE 1028,4 35 0,0
17.09.2020 18:00:00 15,6 11,5 - - 13 7 SE 1028,6 27 0,0
17.09.2020 17:00:00 16,2 11,6 - - 15 8 SE 1029,1 35 0,0
17.09.2020 16:00:00 16,4 11,2 - - 18 10 ESE 1029,4 14 0,0
17.09.2020 15:00:00 16,4 11,6 - - 22 12 SE 1029,9 29 0,0
17.09.2020 14:00:00 16,6 12,0 - - 18 10 SE 1030,4 24 0,2
17.09.2020 13:00:00 16,2 11,5 - - 21 11 SE 1030,7 35 0,0
17.09.2020 12:00:00 15,8 10,9 - - 18 10 SE 1030,7 30 0,0
17.09.2020 11:00:00 15,2 10,8 - - 16 9 ESE 1030,8 25 0,0
17.09.2020 10:00:00 14,3 10,6 15,7 14,5 15 8 E 1030,9 30 0,0
17.09.2020 09:00:00 13,2 10,2 - - 13 7 E 1031,1 30 0,0
17.09.2020 08:00:00 11,7 9,5 - - 11 6 E 1031,0 35 0,0
17.09.2020 07:00:00 11,5 9,4 - - 11 6 E 1031,1 30 0,0
17.09.2020 06:00:00 11,6 9,1 - - 9 5 E 1031,1 35 0,0
17.09.2020 05:00:00 11,2 9,1 - - 8 4 N 1031,6 23 0,0
17.09.2020 04:00:00 11,3 9,0 - - 9 5 ENE 1031,4 24 0,0
17.09.2020 03:00:00 10,9 9,0 - - 13 7 ENE 1031,2 24 0,0
17.09.2020 02:00:00 10,4 9,1 - - 8 4 E 1031,3 20 0,0
17.09.2020 01:00:00 10,3 8,7 - - 11 6 E 1031,2 27 0,0
17.09.2020 00:00:00 11,3 9,4 - - 9 5 E 1031,5 23 0,0
16.09.2020 23:00:00 12,8 10,3 - - 11 6 E 1031,5 26 0,0
16.09.2020 22:00:00 13,0 10,3 - - 2 1 NNE 1031,3 16 0,0
16.09.2020 21:00:00 13,1 10,7 - - 13 7 ENE 1030,5 35 0,0
16.09.2020 20:00:00 12,5 10,2 - - 11 6 E 1030,0 29 0,0
16.09.2020 19:00:00 14,6 11,1 - - 16 9 E 1029,6 25 0,0
16.09.2020 18:00:00 15,5 11,7 - - 15 8 E 1029,4 28 0,0
16.09.2020 17:00:00 17,0 12,2 - - 16 9 E 1029,2 35 0,0
16.09.2020 16:00:00 17,7 12,3 - - 22 12 E 1028,8 45 0,0
16.09.2020 15:00:00 18,2 12,7 - - 22 12 E 1028,5 50 0,0
16.09.2020 14:00:00 18,3 13,0 - - 18 10 E 1028,4 28 0,0
16.09.2020 13:00:00 17,0 12,2 - - 16 9 E 1028,4 30 0,0
16.09.2020 12:00:00 16,5 12,6 - - 13 7 E 1027,9 30 0,0
16.09.2020 11:00:00 15,9 12,3 - - 16 9 E 1027,3 50 0,0
16.09.2020 10:00:00 15,4 12,5 15,7 14,4 15 8 E 1026,7 40 0,0
16.09.2020 09:00:00 14,9 13,3 - - 15 8 ESE 1026,3 45 0,0
16.09.2020 08:00:00 14,7 14,4 - - 8 4 E 1025,6 13 0,0
16.09.2020 07:00:00 13,8 13,7 - - 4 2 NNW 1024,7 4,0 0,0
16.09.2020 06:00:00 13,7 13,6 - - 9 5 NW 1023,9 4,7 0,0
16.09.2020 05:00:00 12,3 12,2 - - 13 7 NW 1023,7 2,8 0,0
16.09.2020 04:00:00 12,8 12,8 - - 11 6 NW 1023,4 3,3 0,0
16.09.2020 03:00:00 12,3 12,2 - - 8 4 NW 1023,2 1,2 0,0
16.09.2020 02:00:00 12,5 12,3 - - 5 3 NNW 1022,8 1,6 0,0
16.09.2020 01:00:00 11,8 11,5 - - 5 3 NNW 1022,5 0,3 0,0
16.09.2020 00:00:00 11,9 11,2 - - 2 1 NNW 1022,3 0,7 0,0
15.09.2020 23:00:00 14,0 13,5 - - 9 5 NW 1021,8 3,5 0,0
15.09.2020 22:00:00 14,2 13,3 - - 8 4 NW 1021,3 5 0,0
15.09.2020 21:00:00 14,1 13,6 - - 8 4 NW 1020,9 8 0,0
15.09.2020 20:00:00 14,9 12,8 - - 4 2 WSW 1020,0 12 0,0
15.09.2020 19:00:00 17,1 14,4 - - 8 4 SSE 1019,4 19 0,0
15.09.2020 18:00:00 20,0 15,1 - - 8 4 SW 1018,9 29 0,0
15.09.2020 17:00:00 20,4 15,5 - - 2 1 S 1018,8 30 0,0
15.09.2020 16:00:00 19,8 15,6 - - 5 3 ESE 1018,7 17 0,0
15.09.2020 15:00:00 19,1 15,7 - - 11 6 ESE 1018,9 21 0,0
15.09.2020 14:00:00 17,2 14,6 - - 9 5 E 1018,9 35 0,0
15.09.2020 13:00:00 17,6 14,5 - - 8 4 SE 1019,1 30 0,0
15.09.2020 12:00:00 18,2 14,9 - - 11 6 SSE 1018,8 19 0,0
15.09.2020 11:00:00 17,6 15,3 - - 15 8 ESE 1018,4 21 0,0
15.09.2020 10:00:00 16,7 15,3 15,7 14,4 11 6 E 1018,0 21 0,0
15.09.2020 09:00:00 15,5 14,9 - - 8 4 E 1018,1 18 0,2
15.09.2020 08:00:00 14,4 13,7 - - 4 2 E 1018,3 24 0,2
15.09.2020 07:00:00 14,4 13,5 - - 2 1 ENE 1018,1 16 0,0
15.09.2020 06:00:00 14,3 13,1 - - 2 1 NE 1017,6 25 0,0
15.09.2020 05:00:00 14,5 13,3 - - 4 2 NNE 1017,5 28 0,0
15.09.2020 04:00:00 14,2 12,9 - - 4 2 SE 1018,0 45 0,0
15.09.2020 03:00:00 14,2 12,3 - - 2 1 SW 1017,9 50 0,0
15.09.2020 02:00:00 14,2 12,6 - - 4 2 S 1018,4 50 0,0
15.09.2020 01:00:00 14,5 11,7 - - 8 4 ESE 1018,6 45 0,0

tt = temperature
td = dewpoint
tt -20cm = temperature -20cm
tt -100cm = temperature -100cm
ff = wind speed
dd = wind direction
ppp = reduced air pressure
vv = visibility
rr = precipitation

Next stations